TimeEDT,TemperatureF,Dew PointF,Humidity,Sea Level PressureIn,VisibilityMPH,Wind Direction,Wind SpeedMPH,Gust SpeedMPH,PrecipitationIn,Events,Conditions,WindDirDegrees,DateUTC
12:52 AM,35.1,14.0,42,30.27,10.0,Calm,Calm,-,N/A,,Clear,0,2013-04-03 04:52:00
1:52 AM,28.0,15.1,58,30.28,10.0,Calm,Calm,-,N/A,,Clear,0,2013-04-03 05:52:00
2:52 AM,30.9,17.1,57,30.30,10.0,North,6.9,-,N/A,,Scattered Clouds,10,2013-04-03 06:52:00
3:52 AM,33.1,12.0,42,30.30,10.0,NE,5.8,-,N/A,,Partly Cloudy,50,2013-04-03 07:52:00
4:52 AM,32.0,12.9,45,30.30,10.0,NE,4.6,-,N/A,,Scattered Clouds,50,2013-04-03 08:52:00
5:52 AM,32.0,12.9,45,30.31,10.0,NE,4.6,-,N/A,,Mostly Cloudy,50,2013-04-03 09:52:00
6:52 AM,28.0,15.1,58,30.32,10.0,NNE,4.6,-,N/A,,Mostly Cloudy,30,2013-04-03 10:52:00
7:52 AM,30.0,14.0,51,30.35,10.0,ENE,3.5,-,N/A,,Scattered Clouds,60,2013-04-03 11:52:00
8:52 AM,34.0,12.9,42,30.39,10.0,ENE,8.1,-,N/A,,Partly Cloudy,60,2013-04-03 12:52:00
9:52 AM,37.9,12.9,36,30.41,10.0,NE,6.9,-,N/A,,Scattered Clouds,40,2013-04-03 13:52:00
10:52 AM,39.9,10.9,31,30.42,10.0,NE,6.9,-,N/A,,Mostly Cloudy,50,2013-04-03 14:52:00
11:52 AM,41.0,12.0,31,30.42,10.0,NNE,5.8,-,N/A,,Scattered Clouds,30,2013-04-03 15:52:00
12:52 PM,44.1,12.9,28,30.40,10.0,North,11.5,-,N/A,,Scattered Clouds,10,2013-04-03 16:52:00
1:52 PM,45.0,12.9,27,30.38,10.0,Variable,3.5,-,N/A,,Mostly Cloudy,0,2013-04-03 17:52:00
2:52 PM,46.0,9.0,22,30.37,10.0,NNE,10.4,18.4,N/A,,Scattered Clouds,20,2013-04-03 18:52:00
3:52 PM,46.9,10.0,22,30.37,10.0,Variable,4.6,-,N/A,,Scattered Clouds,0,2013-04-03 19:52:00
4:52 PM,46.9,10.0,22,30.37,10.0,ENE,11.5,-,N/A,,Scattered Clouds,60,2013-04-03 20:52:00
5:52 PM,48.0,9.0,21,30.36,10.0,ENE,8.1,-,N/A,,Partly Cloudy,60,2013-04-03 21:52:00
6:52 PM,46.9,10.0,22,30.35,10.0,NE,8.1,-,N/A,,Scattered Clouds,50,2013-04-03 22:52:00
7:52 PM,45.0,10.9,25,30.33,10.0,East,11.5,-,N/A,,Mostly Cloudy,80,2013-04-03 23:52:00
8:52 PM,42.1,14.0,32,30.32,10.0,East,9.2,-,N/A,,Mostly Cloudy,90,2013-04-04 00:52:00
9:52 PM,39.9,15.1,36,30.32,10.0,East,8.1,-,N/A,,Overcast,90,2013-04-04 01:52:00
10:52 PM,39.0,16.0,39,30.34,10.0,East,5.8,-,N/A,,Overcast,100,2013-04-04 02:52:00
11:52 PM,39.0,17.1,41,30.34,10.0,East,8.1,-,N/A,,Overcast,90,2013-04-04 03:52:00